| time (UTC) | temp F | wind direction | speed knots | gust knots | rain 1hr in | rain 24hr in | rain mn in | humidity % | barometer mb |
| 20260507202458 | 69 | 138 | 2.6 | 2.6 | 0.00 | 0.00 | 0.00 | 58 | 1018.8 |
| 20260507201955 | 69 | 161 | 1.7 | 3.5 | 0.00 | 0.00 | 0.00 | 57 | 1018.4 |
| 20260507201450 | 70 | 127 | 3.5 | 3.5 | 0.00 | 0.00 | 0.00 | 58 | 1018.7 |
| 20260507200947 | 70 | 150 | 2.6 | 4.3 | 0.00 | 0.00 | 0.00 | 57 | 1018.8 |
| 20260507200442 | 70 | 358 | 1.7 | 3.5 | 0.00 | 0.00 | 0.00 | 57 | 1018.6 |
| 20260507195938 | 69 | 161 | 4.3 | 4.3 | 0.00 | 0.00 | 0.00 | 56 | 1018.7 |
| 20260507195436 | 69 | 153 | 2.6 | 3.5 | 0.00 | 0.00 | 0.00 | 57 | 1018.6 |
| 20260507194934 | 70 | 45 | 4.3 | 6.1 | 0.00 | 0.00 | 0.00 | 55 | 1018.5 |
| 20260507194430 | 70 | 37 | 5.2 | 5.2 | 0.00 | 0.00 | 0.00 | 57 | 1018.5 |
| 20260507193926 | 70 | 25 | 1.7 | 2.6 | 0.00 | 0.00 | 0.00 | 56 | 1018.7 |
| 20260507193423 | 70 | 80 | 1.7 | 4.3 | 0.00 | 0.00 | 0.00 | 56 | 1018.6 |
| 20260507192920 | 70 | 160 | 0.9 | 3.5 | 0.00 | 0.00 | 0.00 | 56 | 1018.7 |
| 20260507192416 | 69 | 58 | 3.5 | 8.7 | 0.00 | 0.00 | 0.00 | 57 | 1018.5 |
| 20260507191913 | 69 | 107 | 3.5 | 7.0 | 0.00 | 0.00 | 0.00 | 57 | 1018.9 |
| 20260507191409 | 70 | 72 | 2.6 | 3.5 | 0.00 | 0.00 | 0.00 | 55 | 1019.1 |
| 20260507190906 | 70 | 38 | 5.2 | 5.2 | 0.00 | 0.00 | 0.00 | 56 | 1018.9 |
| 20260507190404 | 69 | 52 | 2.6 | 7.0 | 0.00 | 0.00 | 0.00 | 55 | 1019.4 |
| 20260507185903 | 69 | 58 | 3.5 | 5.2 | 0.00 | 0.00 | 0.00 | 56 | 1019.4 |
| 20260507185359 | 69 | 44 | 5.2 | 5.2 | 0.00 | 0.00 | 0.00 | 55 | 1019.7 |
| 20260507184856 | 69 | 64 | 2.6 | 4.3 | 0.00 | 0.00 | 0.00 | 57 | 1019.8 |
| 20260507184354 | 69 | 72 | 6.1 | 9.6 | 0.00 | 0.00 | 0.00 | 54 | 1019.9 |
| 20260507183850 | 70 | 88 | 1.7 | 3.5 | 0.00 | 0.00 | 0.00 | 55 | 1019.9 |
| 20260507183348 | 70 | 69 | 2.6 | 8.7 | 0.00 | 0.00 | 0.00 | 54 | 1020.1 |
| 20260507182845 | 70 | 7 | 2.6 | 2.6 | 0.00 | 0.00 | 0.00 | 55 | 1020.0 |
| 20260507182341 | 70 | 23 | 6.1 | 6.1 | 0.00 | 0.00 | 0.00 | 55 | 1020.1 |
| 20260507181837 | 70 | 141 | 0.9 | 2.6 | 0.00 | 0.00 | 0.00 | 57 | 1019.9 |
| 20260507181333 | 69 | 95 | 2.6 | 3.5 | 0.00 | 0.00 | 0.00 | 59 | 1020.1 |
| 20260507180830 | 68 | 269 | 1.7 | 6.1 | 0.00 | 0.00 | 0.00 | 58 | 1020.0 |
| 20260507180327 | 68 | 19 | 2.6 | 5.2 | 0.00 | 0.00 | 0.00 | 58 | 1019.9 |
| 20260507175822 | 68 | 54 | 2.6 | 7.0 | 0.00 | 0.00 | 0.00 | 60 | 1019.8 |
| 20260507175320 | 69 | 20 | 4.3 | 7.8 | 0.00 | 0.00 | 0.00 | 59 | 1019.9 |
| 20260507174817 | 68 | 336 | 3.5 | 4.3 | 0.00 | 0.00 | 0.00 | 60 | 1020.0 |
| 20260507174315 | 67 | 21 | 2.6 | 10.4 | 0.00 | 0.00 | 0.00 | 62 | 1020.0 |
| 20260507173812 | 66 | 16 | 3.5 | 9.6 | 0.00 | 0.00 | 0.00 | 61 | 1020.0 |
| 20260507173309 | 67 | 11 | 3.5 | 11.3 | 0.00 | 0.00 | 0.00 | 61 | 1020.0 |
| 20260507172805 | 67 | 342 | 4.3 | 6.1 | 0.00 | 0.00 | 0.00 | 61 | 1020.1 |
| 20260507172306 | 66 | 39 | 6.1 | 11.3 | 0.00 | 0.00 | 0.00 | 60 | 1020.1 |
| 20260507171758 | 66 | 46 | 7.8 | 12.2 | 0.00 | 0.00 | 0.00 | 62 | 1020.2 |
| 20260507171255 | 66 | 29 | 5.2 | 10.4 | 0.00 | 0.00 | 0.00 | 61 | 1020.1 |
| 20260507170752 | 66 | 21 | 5.2 | 10.4 | 0.00 | 0.00 | 0.00 | 60 | 1020.1 |
| 20260507170248 | 66 | 28 | 5.2 | 7.8 | 0.00 | 0.00 | 0.00 | 62 | 1020.6 |
| 20260507165744 | 66 | 22 | 5.2 | 10.4 | 0.00 | 0.00 | 0.00 | 62 | 1020.5 |
| 20260507165241 | 65 | 13 | 3.5 | 8.7 | 0.00 | 0.00 | 0.00 | 64 | 1020.6 |
| 20260507164737 | 65 | 20 | 5.2 | 10.4 | 0.00 | 0.00 | 0.00 | 66 | 1020.8 |
| 20260507164234 | 66 | 25 | 5.2 | 9.6 | 0.00 | 0.00 | 0.00 | 64 | 1020.9 |
| 20260507163731 | 66 | 47 | 4.3 | 4.3 | 0.00 | 0.00 | 0.00 | 67 | 1020.9 |
| 20260507163229 | 65 | 44 | 4.3 | 7.8 | 0.00 | 0.00 | 0.00 | 66 | 1021.0 |
| 20260507162725 | 66 | 16 | 6.1 | 10.4 | 0.00 | 0.00 | 0.00 | 67 | 1020.9 |
| 20260507162221 | 66 | 26 | 4.3 | 7.0 | 0.00 | 0.00 | 0.00 | 68 | 1021.1 |
| 20260507161718 | 66 | 347 | 2.6 | 4.3 | 0.00 | 0.00 | 0.00 | 68 | 1021.6 |
| 20260507161214 | 65 | 352 | 2.6 | 5.2 | 0.00 | 0.00 | 0.00 | 68 | 1021.2 |
| 20260507160710 | 65 | 352 | 1.7 | 7.8 | 0.00 | 0.00 | 0.00 | 68 | 1021.1 |
| 20260507160207 | 64 | 70 | 7.8 | 8.7 | 0.00 | 0.00 | 0.00 | 67 | 1021.3 |
| 20260507155703 | 66 | 34 | 8.7 | 9.6 | 0.00 | 0.00 | 0.00 | 65 | 1021.2 |
| 20260507155159 | 66 | 48 | 2.6 | 3.5 | 0.00 | 0.00 | 0.00 | 69 | 1021.4 |
| 20260507154655 | 65 | 18 | 6.1 | 7.0 | 0.00 | 0.00 | 0.00 | 69 | 1021.3 |
| 20260507154153 | 65 | 12 | 2.6 | 7.0 | 0.00 | 0.00 | 0.00 | 70 | 1021.2 |
| 20260507153650 | 64 | 98 | 3.5 | 7.8 | 0.00 | 0.00 | 0.00 | 70 | |
| 20260507153146 | 63 | 55 | 6.1 | 11.3 | 0.00 | 0.00 | 0.00 | 70 | 1021.3 |
| 20260507152643 | 64 | 329 | 3.5 | 6.1 | 0.00 | 0.00 | 0.00 | 70 | 1021.3 |
| 20260507152138 | 63 | 0 | 5.2 | 5.2 | 0.00 | 0.00 | 0.00 | 73 | 1021.2 |
| 20260507151635 | 64 | 46 | 3.5 | 10.4 | 0.00 | 0.00 | 0.00 | 70 | 1021.2 |
| 20260507151132 | 63 | 43 | 3.5 | 6.1 | 0.00 | 0.00 | 0.00 | 74 | 1021.4 |
| 20260507150629 | 63 | 28 | 3.5 | 6.1 | 0.00 | 0.00 | 0.00 | 74 | 1021.3 |
| 20260507150125 | 62 | 58 | 7.0 | 9.6 | 0.00 | 0.00 | 0.00 | 76 | 1021.4 |
| 20260507145620 | 61 | 68 | 4.3 | 4.3 | 0.00 | 0.00 | 0.00 | 77 | 1021.6 |
| 20260507145118 | 61 | 43 | 1.7 | 4.3 | 0.00 | 0.00 | 0.00 | 79 | 1021.5 |
| 20260507144614 | 60 | 25 | 5.2 | 7.8 | 0.00 | 0.00 | 0.00 | 78 | 1021.4 |
| 20260507144113 | 60 | 54 | 4.3 | 8.7 | 0.00 | 0.00 | 0.00 | 78 | 1021.6 |
| 20260507143609 | 60 | 43 | 7.0 | 7.8 | 0.00 | 0.00 | 0.00 | 79 | 1021.8 |
| 20260507143106 | 60 | 46 | 5.2 | 5.2 | 0.00 | 0.00 | 0.00 | 79 | 1021.5 |
| 20260507142601 | 60 | 43 | 4.3 | 8.7 | 0.00 | 0.00 | 0.00 | 80 | 1021.6 |
| 20260507142059 | 60 | 31 | 5.2 | 8.7 | 0.00 | 0.00 | 0.00 | 80 | 1021.5 |
| 20260507141554 | 60 | 29 | 2.6 | 4.3 | 0.00 | 0.00 | 0.00 | 81 | 1021.7 |
| 20260507141051 | 59 | 11 | 3.5 | 6.1 | 0.00 | 0.00 | 0.00 | 81 | 1021.8 |
| 20260507140548 | 60 | 46 | 4.3 | 7.0 | 0.00 | 0.00 | 0.00 | 81 | 1021.8 |
| 20260507140046 | 60 | 14 | 1.7 | 4.3 | 0.00 | 0.00 | 0.00 | 82 | 1021.8 |
| 20260507135542 | 59 | 36 | 3.5 | 5.2 | 0.00 | 0.00 | 0.00 | 83 | 1021.7 |
| 20260507135040 | 60 | 41 | 6.1 | 6.1 | 0.00 | 0.00 | 0.00 | 83 | 1021.7 |
| 20260507134536 | 59 | 7 | 3.5 | 4.3 | 0.00 | 0.00 | 0.00 | 84 | 1021.9 |
| 20260507134032 | 59 | 48 | 1.7 | 3.5 | 0.00 | 0.00 | 0.00 | 87 | 1022.0 |
| 20260507133528 | 57 | 36 | 3.5 | 4.3 | 0.00 | 0.00 | 0.00 | 88 | 1022.0 |
| 20260507133027 | 57 | 31 | 2.6 | 2.6 | 0.00 | 0.00 | 0.00 | 89 | 1021.9 |
| 20260507132523 | 56 | 353 | 2.6 | 3.5 | 0.00 | 0.00 | 0.00 | 89 | 1021.8 |
| 20260507132019 | 56 | 74 | 0.9 | 2.6 | 0.00 | 0.00 | 0.00 | 90 | 1022.0 |
| 20260507131516 | 55 | 35 | 1.7 | 2.6 | 0.00 | 0.00 | 0.00 | 90 | 1021.9 |
| 20260507131013 | 55 | 66 | 2.6 | 3.5 | 0.00 | 0.00 | 0.00 | 91 | 1022.1 |
| 20260507130510 | 55 | 8 | 1.7 | 2.6 | 0.00 | 0.00 | 0.00 | 91 | 1022.2 |
| 20260507130009 | 55 | 25 | 0.9 | 2.6 | 0.00 | 0.00 | 0.00 | 91 | 1021.9 |
| 20260507125507 | 54 | 22 | 0.0 | 1.7 | 0.00 | 0.00 | 0.00 | 91 | 1022.0 |
| 20260507125003 | 54 | 31 | 0.9 | 2.6 | 0.00 | 0.00 | 0.00 | 91 | 1022.0 |
| 20260507124500 | 53 | 38 | 0.0 | 2.6 | 0.00 | 0.00 | 0.00 | 92 | 1021.6 |
| 20260507123958 | 53 | 357 | 2.6 | 4.3 | 0.00 | 0.00 | 0.00 | 92 | 1022.0 |
| 20260507123455 | 53 | 23 | 1.7 | 3.5 | 0.00 | 0.00 | 0.00 | 92 | 1022.2 |
| 20260507122951 | 53 | 1 | 2.6 | 4.3 | 0.00 | 0.00 | 0.00 | 92 | 1022.1 |
| 20260507122447 | 53 | 0 | 2.6 | 4.3 | 0.00 | 0.00 | 0.00 | 92 | 1022.2 |
| 20260507121944 | 52 | 4 | 2.6 | 3.5 | 0.00 | 0.00 | 0.00 | 92 | 1022.1 |
| 20260507121439 | 52 | 353 | 2.6 | 3.5 | 0.00 | 0.00 | 0.00 | 92 | 1022.0 |
| 20260507120935 | 52 | 0 | 3.5 | 4.3 | 0.00 | 0.00 | 0.00 | 92 | 1022.0 |
| 20260507120432 | 52 | 7 | 2.6 | 3.5 | 0.00 | 0.00 | 0.00 | 92 | 1022.0 |
| 20260507115928 | 52 | 2 | 3.5 | 4.3 | 0.00 | 0.00 | 0.00 | 92 | 1021.9 |
| 20260507115424 | 52 | 12 | 1.7 | 5.2 | 0.00 | 0.00 | 0.00 | 92 | 1021.8 |
| 20260507114920 | 52 | 22 | 1.7 | 3.5 | 0.00 | 0.00 | 0.00 | 91 | 1022.0 |
| 20260507114417 | 52 | 0 | 1.7 | 3.5 | 0.00 | 0.00 | 0.00 | 91 | 1022.1 |
| 20260507113914 | 52 | 3 | 2.6 | 2.6 | 0.00 | 0.00 | 0.00 | 91 | 1022.0 |
| 20260507113411 | 53 | 13 | 2.6 | 3.5 | 0.00 | 0.00 | 0.00 | 91 | 1022.1 |
| 20260507112909 | 53 | 8 | 1.7 | 3.5 | 0.00 | 0.00 | 0.00 | 91 | 1021.9 |
| 20260507112406 | 53 | 2 | 3.5 | 5.2 | 0.00 | 0.00 | 0.00 | 91 | 1022.0 |
| 20260507111904 | 53 | 344 | 0.9 | 3.5 | 0.00 | 0.00 | 0.00 | 91 | 1021.9 |
| 20260507111400 | 53 | 0 | 2.6 | 3.5 | 0.00 | 0.00 | 0.00 | 90 | 1021.7 |
| 20260507110856 | 53 | 342 | 1.7 | 3.5 | 0.00 | 0.00 | 0.00 | 90 | 1021.8 |
| 20260507110352 | 53 | 1 | 1.7 | 4.3 | 0.00 | 0.00 | 0.00 | 90 | 1021.6 |
| 20260507105850 | 53 | 356 | 2.6 | 3.5 | 0.00 | 0.00 | 0.00 | 90 | 1021.5 |
| 20260507105346 | 53 | 347 | 1.7 | 3.5 | 0.00 | 0.00 | 0.00 | 90 | 1021.5 |
| 20260507104843 | 53 | 357 | 2.6 | 4.3 | 0.00 | 0.00 | 0.00 | 90 | 1021.5 |
| 20260507104340 | 53 | 0 | 2.6 | 3.5 | 0.00 | 0.00 | 0.00 | 90 | 1021.5 |
| 20260507103835 | 53 | 339 | 1.7 | 2.6 | 0.00 | 0.00 | 0.00 | 90 | 1021.4 |
| 20260507103332 | 53 | 11 | 0.9 | 1.7 | 0.00 | 0.00 | 0.00 | 89 | 1021.1 |
| 20260507102829 | 53 | 299 | 0.9 | 2.6 | 0.00 | 0.00 | 0.00 | 89 | 1021.2 |
| 20260507102325 | 53 | 355 | 0.0 | 1.7 | 0.00 | 0.00 | 0.00 | 89 | 1020.9 |
| 20260507101822 | 53 | 351 | 1.7 | 2.6 | 0.00 | 0.00 | 0.00 | 89 | 1020.9 |
| 20260507101316 | 54 | 333 | 1.7 | 4.3 | 0.00 | 0.00 | 0.00 | 89 | 1020.5 |
| 20260507100813 | 54 | 9 | 2.6 | 4.3 | 0.00 | 0.00 | 0.00 | 89 | 1020.6 |
| 20260507100312 | 54 | 327 | 0.9 | 4.3 | 0.00 | 0.00 | 0.00 | 89 | 1020.4 |
| 20260507095810 | 54 | 6 | 2.6 | 4.3 | 0.00 | 0.00 | 0.00 | 89 | 1020.5 |
| 20260507095306 | 54 | 355 | 3.5 | 4.3 | 0.00 | 0.00 | 0.00 | 89 | 1020.4 |
| 20260507094803 | 54 | 344 | 3.5 | 4.3 | 0.00 | 0.00 | 0.00 | 89 | 1020.3 |
| 20260507094259 | 54 | 317 | 2.6 | 3.5 | 0.00 | 0.00 | 0.00 | 89 | 1020.2 |
| 20260507093756 | 54 | 316 | 2.6 | 4.3 | 0.00 | 0.00 | 0.00 | 89 | 1020.1 |
| 20260507093255 | 54 | 296 | 2.6 | 3.5 | 0.00 | 0.00 | 0.00 | 89 | 1019.8 |
| 20260507092752 | 54 | 337 | 4.3 | 5.2 | 0.00 | 0.00 | 0.00 | 89 | 1019.7 |
| 20260507092248 | 54 | 348 | 2.6 | 4.3 | 0.00 | 0.00 | 0.00 | 89 | 1019.7 |
| 20260507091745 | 54 | 310 | 3.5 | 5.2 | 0.00 | 0.00 | 0.00 | 89 | 1019.6 |
| 20260507091242 | 54 | 349 | 2.6 | 5.2 | 0.00 | 0.00 | 0.00 | 89 | 1019.6 |
| 20260507090737 | 55 | 318 | 2.6 | 5.2 | 0.00 | 0.00 | 0.00 | 88 | 1019.5 |
| 20260507090234 | 55 | 342 | 2.6 | 3.5 | 0.00 | 0.00 | 0.00 | 88 | 1019.7 |
| 20260507085731 | 55 | 2 | 2.6 | 4.3 | 0.00 | 0.00 | 0.00 | 88 | 1019.6 |
| 20260507085227 | 55 | 340 | 1.7 | 4.3 | 0.00 | 0.00 | 0.00 | 88 | 1019.4 |
| 20260507084725 | 56 | 300 | 1.7 | 2.6 | 0.00 | 0.00 | 0.00 | 87 | 1019.4 |
| 20260507084221 | 56 | 326 | 2.6 | 3.5 | 0.00 | 0.00 | 0.00 | 87 | 1019.6 |
| 20260507083719 | 56 | 357 | 1.7 | 2.6 | 0.00 | 0.00 | 0.00 | 87 | 1019.5 |
| 20260507083215 | 56 | 347 | 1.7 | 2.6 | 0.00 | 0.00 | 0.00 | 87 | 1019.5 |
| 20260507082711 | 56 | 315 | 2.6 | 2.6 | 0.00 | 0.00 | 0.00 | 87 | 1019.6 |
| 20260507082207 | 56 | 350 | 1.7 | 2.6 | 0.00 | 0.00 | 0.00 | 87 | 1019.4 |
| 20260507081704 | 57 | 336 | 1.7 | 2.6 | 0.00 | 0.00 | 0.00 | 87 | 1019.3 |
| 20260507081200 | 57 | 358 | 3.5 | 4.3 | 0.00 | 0.00 | 0.00 | 87 | 1019.2 |
| 20260507080657 | 57 | 334 | 1.7 | 3.5 | 0.00 | 0.00 | 0.00 | 87 | 1019.1 |
| 20260507080153 | 57 | 358 | 1.7 | 4.3 | 0.00 | 0.00 | 0.00 | 87 | 1019.3 |
| 20260507075648 | 57 | 318 | 2.6 | 6.1 | 0.00 | 0.00 | 0.00 | 87 | 1018.9 |
| 20260507075145 | 57 | 332 | 2.6 | 5.2 | 0.00 | 0.00 | 0.00 | 88 | 1019.2 |
| 20260507074641 | 57 | 358 | 2.6 | 3.5 | 0.00 | 0.00 | 0.00 | 89 | 1018.9 |
| 20260507074140 | 56 | 343 | 3.5 | 4.3 | 0.00 | 0.00 | 0.00 | 89 | 1019.3 |
| 20260507073636 | 56 | 292 | 4.3 | 4.3 | 0.00 | 0.00 | 0.00 | 90 | 1019.1 |
| 20260507073132 | 56 | 330 | 3.5 | 6.1 | 0.00 | 0.00 | 0.00 | 91 | 1019.3 |
| 20260507072630 | 56 | 4 | 3.5 | 4.3 | 0.00 | 0.00 | 0.00 | 92 | 1019.2 |
| 20260507072127 | 56 | 306 | 0.0 | 2.6 | 0.00 | 0.00 | 0.00 | 93 | 1018.9 |
| 20260507071625 | 56 | 6 | 1.7 | 2.6 | 0.00 | 0.00 | 0.00 | 93 | 1018.9 |
| 20260507071121 | 56 | 5 | 1.7 | 2.6 | 0.00 | 0.00 | 0.00 | 94 | 1018.6 |
| 20260507070618 | 56 | 21 | 0.9 | 2.6 | 0.00 | 0.00 | 0.00 | 95 | 1018.6 |
| 20260507070115 | 56 | 14 | 0.9 | 2.6 | 0.00 | 0.00 | 0.00 | 95 | 1018.8 |
| 20260507065611 | 56 | 335 | 1.7 | 3.5 | 0.00 | 0.00 | 0.00 | 95 | 1018.6 |
| 20260507065108 | 56 | 322 | 2.6 | 2.6 | 0.00 | 0.00 | 0.00 | 96 | 1018.8 |
| 20260507064606 | 56 | 332 | 1.7 | 1.7 | 0.00 | 0.00 | 0.00 | 96 | 1018.7 |
| 20260507064105 | 56 | 1 | 0.9 | 1.7 | 0.00 | 0.00 | 0.00 | 96 | 1018.5 |
| 20260507063602 | 55 | 26 | 0.9 | 2.6 | 0.00 | 0.00 | 0.00 | 96 | 1018.5 |
| 20260507063059 | 55 | 25 | 0.0 | 1.7 | 0.00 | 0.00 | 0.00 | 96 | 1018.2 |
| 20260507062555 | 55 | 44 | 0.9 | 2.6 | 0.00 | 0.00 | 0.00 | 96 | 1018.1 |
| 20260507062053 | 55 | 32 | 1.7 | 2.6 | 0.00 | 0.00 | 0.00 | 96 | 1018.2 |
| 20260507061550 | 55 | 53 | 2.6 | 2.6 | 0.00 | 0.00 | 0.00 | 95 | 1018.2 |
| 20260507061048 | 55 | 30 | 1.7 | 2.6 | 0.00 | 0.00 | 0.00 | 95 | 1018.2 |
| 20260507060546 | 55 | 39 | 2.6 | 2.6 | 0.00 | 0.00 | 0.00 | 95 | 1018.3 |
| 20260507060042 | 55 | 37 | 2.6 | 3.5 | 0.00 | 0.00 | 0.00 | 95 | 1018.4 |
| 20260507055542 | 55 | 44 | 2.6 | 2.6 | 0.00 | 0.00 | 0.00 | 95 | 1018.4 |
| 20260507055039 | 55 | 27 | 2.6 | 3.5 | 0.00 | 0.00 | 0.00 | 95 | 1018.3 |
| 20260507054535 | 54 | 38 | 2.6 | 2.6 | 0.00 | 0.00 | 0.00 | 95 | 1018.2 |
| 20260507054032 | 53 | 52 | 0.9 | 1.7 | 0.00 | 0.00 | 0.00 | 95 | 1018.4 |
| 20260507053530 | 53 | 340 | 0.9 | 0.9 | 0.00 | 0.00 | 0.00 | 95 | 1018.6 |
| 20260507053029 | 53 | 10 | 0.9 | 1.7 | 0.00 | 0.00 | 0.00 | 94 | 1018.3 |
| 20260507052526 | 53 | 48 | 0.0 | 1.7 | 0.00 | 0.00 | 0.00 | 94 | 1018.3 |
| 20260507052022 | 53 | 45 | 0.0 | 0.9 | 0.00 | 0.00 | 0.00 | 95 | 1018.4 |
| 20260507051520 | 53 | 18 | 0.9 | 1.7 | 0.00 | 0.00 | 0.00 | 94 | 1018.4 |
| 20260507051017 | 53 | 28 | 0.0 | 0.9 | 0.00 | 0.00 | 0.00 | 94 | 1018.5 |
| 20260507050513 | 53 | 203 | 0.0 | 1.7 | 0.00 | 0.00 | 0.00 | 94 | 1018.1 |
| 20260507050010 | 53 | 34 | 0.0 | 0.9 | 0.00 | 0.03 | 0.03 | 94 | 1018.2 |
| 20260507045507 | 53 | 13 | 0.0 | 0.9 | 0.00 | 0.03 | 0.03 | 94 | 1018.3 |
| 20260507045004 | 54 | 323 | 0.0 | 0.9 | 0.00 | 0.03 | 0.03 | 94 | 1018.3 |
| 20260507044501 | 54 | 286 | 0.9 | 0.9 | 0.00 | 0.03 | 0.03 | 94 | 1018.2 |
| 20260507043957 | 54 | 28 | 0.9 | 1.7 | 0.00 | 0.03 | 0.03 | 94 | 1018.3 |
| 20260507043453 | 54 | 122 | 0.0 | 1.7 | 0.00 | 0.03 | 0.03 | 93 | 1018.4 |
| 20260507042950 | 54 | 53 | 0.0 | 0.9 | 0.00 | 0.03 | 0.03 | 93 | 1018.5 |
| 20260507042446 | 54 | 63 | 0.9 | 1.7 | 0.00 | 0.03 | 0.03 | 93 | 1018.2 |
| 20260507041942 | 54 | 19 | 0.0 | 0.9 | 0.00 | 0.03 | 0.03 | 93 | 1018.6 |
| 20260507041439 | 55 | 164 | 0.0 | 0.9 | 0.00 | 0.03 | 0.03 | 93 | 1018.5 |
| 20260507040936 | 55 | 60 | 0.0 | 0.0 | 0.00 | 0.03 | 0.03 | 93 | 1018.4 |
| 20260507040432 | 55 | 352 | 0.0 | 0.9 | 0.00 | 0.03 | 0.03 | 93 | 1018.6 |
| 20260507035928 | 55 | 309 | 0.0 | 0.9 | 0.00 | 0.03 | 0.03 | 92 | 1018.5 |
| 20260507035425 | 55 | 65 | 0.0 | 0.9 | 0.00 | 0.03 | 0.03 | 92 | 1018.3 |
| 20260507034922 | 55 | 228 | 0.0 | 1.7 | 0.00 | 0.03 | 0.03 | 92 | 1018.6 |
| 20260507034418 | 55 | 9 | 0.0 | 1.7 | 0.00 | 0.03 | 0.03 | 92 | 1018.3 |
| 20260507033916 | 56 | 348 | 0.0 | 1.7 | 0.00 | 0.03 | 0.03 | 91 | 1018.5 |
| 20260507033414 | 56 | 137 | 0.0 | 1.7 | 0.00 | 0.03 | 0.03 | 91 | 1018.6 |
| 20260507032911 | 56 | 63 | 0.9 | 1.7 | 0.00 | 0.03 | 0.03 | 91 | 1018.3 |
| 20260507032408 | 57 | 26 | 0.9 | 1.7 | 0.00 | 0.03 | 0.03 | 91 | 1018.4 |
| 20260507031904 | 57 | 10 | 0.9 | 1.7 | 0.00 | 0.03 | 0.03 | 91 | 1018.4 |
| 20260507031401 | 57 | 359 | 0.0 | 1.7 | 0.00 | 0.03 | 0.03 | 91 | 1018.3 |
| 20260507030857 | 57 | 357 | 0.9 | 1.7 | 0.00 | 0.03 | 0.03 | 91 | 1018.5 |
| 20260507030355 | 57 | 345 | 0.0 | 1.7 | 0.00 | 0.03 | 0.03 | 90 | 1018.4 |
| 20260507025851 | 58 | 19 | 0.0 | 1.7 | 0.00 | 0.03 | 0.03 | 90 | 1018.3 |
| 20260507025349 | 58 | 4 | 1.7 | 2.6 | 0.00 | 0.03 | 0.03 | 90 | 1018.2 |
| 20260507024846 | 58 | 0 | 1.7 | 2.6 | 0.00 | 0.03 | 0.03 | 90 | 1018.1 |
| 20260507024343 | 58 | 358 | 0.0 | 1.7 | 0.00 | 0.03 | 0.03 | 90 | 1017.9 |
| 20260507023839 | 58 | 0 | 1.7 | 2.6 | 0.00 | 0.03 | 0.03 | 90 | 1018.1 |
| 20260507023336 | 58 | 4 | 0.9 | 2.6 | 0.00 | 0.03 | 0.03 | 90 | 1017.8 |
| 20260507022834 | 58 | 342 | 0.9 | 1.7 | 0.00 | 0.03 | 0.03 | 90 | 1017.7 |
| 20260507022330 | 58 | 15 | 1.7 | 2.6 | 0.00 | 0.03 | 0.03 | 90 | 1017.6 |
| 20260507021826 | 58 | 357 | 1.7 | 1.7 | 0.00 | 0.03 | 0.03 | 89 | 1017.8 |
| 20260507021322 | 58 | 12 | 1.7 | 2.6 | 0.00 | 0.03 | 0.03 | 89 | 1017.6 |
| 20260507020820 | 58 | 0 | 0.9 | 2.6 | 0.00 | 0.03 | 0.03 | 89 | 1017.2 |
| 20260507020316 | 58 | 32 | 1.7 | 2.6 | 0.00 | 0.03 | 0.03 | 89 | 1017.2 |
| 20260507015813 | 58 | 7 | 1.7 | 2.6 | 0.00 | 0.03 | 0.03 | 88 | 1017.1 |
| 20260507015311 | 58 | 357 | 0.0 | 0.9 | 0.00 | 0.03 | 0.03 | 87 | 1017.0 |
| 20260507014808 | 58 | 335 | 0.0 | 1.7 | 0.00 | 0.03 | 0.03 | 86 | 1016.9 |
| 20260507014304 | 59 | 20 | 0.0 | 1.7 | 0.00 | 0.03 | 0.03 | 86 | 1016.7 |
| 20260507013800 | 59 | 119 | 0.0 | 0.9 | 0.00 | 0.03 | 0.03 | 85 | 1016.7 |
| 20260507013258 | 60 | 115 | 0.0 | 1.7 | 0.00 | 0.03 | 0.03 | 85 | 1016.5 |
| 20260507012755 | 60 | 111 | 0.0 | 0.9 | 0.00 | 0.03 | 0.03 | 84 | 1016.5 |
| 20260507012250 | 60 | 36 | 1.7 | 2.6 | 0.00 | 0.03 | 0.03 | 84 | 1016.4 |
| 20260507011749 | 60 | 20 | 0.0 | 1.7 | 0.00 | 0.03 | 0.03 | 83 | 1016.2 |
| 20260507011245 | 61 | 41 | 0.9 | 1.7 | 0.00 | 0.03 | 0.03 | 83 | 1016.1 |
| 20260507010744 | 61 | 45 | 1.7 | 3.5 | 0.00 | 0.03 | 0.03 | 82 | 1016.0 |
| 20260507010241 | 62 | 27 | 1.7 | 3.5 | 0.00 | 0.03 | 0.03 | 82 | 1016.0 |
| 20260507005738 | 62 | 53 | 3.5 | 3.5 | 0.00 | 0.03 | 0.03 | 81 | 1016.0 |
| 20260507005234 | 62 | 43 | 2.6 | 4.3 | 0.00 | 0.03 | 0.03 | 81 | 1015.6 |
| 20260507004731 | 62 | 41 | 0.9 | 3.5 | 0.00 | 0.03 | 0.03 | 80 | 1015.7 |
| 20260507004229 | 62 | 20 | 2.6 | 3.5 | 0.00 | 0.03 | 0.03 | 80 | 1015.9 |
| 20260507003725 | 62 | 30 | 2.6 | 4.3 | 0.00 | 0.03 | 0.03 | 79 | 1015.8 |
| 20260507003220 | 62 | 49 | 3.5 | 3.5 | 0.00 | 0.03 | 0.03 | 79 | 1015.9 |
| 20260507002717 | 62 | 41 | 4.3 | 6.1 | 0.00 | 0.03 | 0.03 | 78 | 1015.7 |
| 20260507002213 | 62 | 46 | 4.3 | 6.1 | 0.00 | 0.03 | 0.03 | 79 | 1015.8 |
| 20260507001709 | 62 | 75 | 3.5 | 4.3 | 0.00 | 0.03 | 0.03 | 79 | 1015.9 |
| 20260507001207 | 62 | 67 | 3.5 | 4.3 | 0.00 | 0.03 | 0.03 | 78 | 1016.0 |
| 20260507000703 | 62 | 37 | 3.5 | 4.3 | 0.00 | 0.03 | 0.03 | 78 | 1015.9 |
| 20260507000159 | 63 | 78 | 4.3 | 5.2 | 0.00 | 0.03 | 0.03 | 78 | 1015.9 |
| 20260506235656 | 63 | 21 | 2.6 | 2.6 | 0.00 | 0.03 | 0.03 | 78 | 1015.8 |
| 20260506235151 | 63 | 45 | 3.5 | 4.3 | 0.00 | 0.03 | 0.03 | 78 | 1015.8 |
| 20260506234648 | 63 | 43 | 3.5 | 4.3 | 0.00 | 0.03 | 0.03 | 78 | 1015.8 |
| 20260506234145 | 62 | 11 | 1.7 | 2.6 | 0.00 | 0.03 | 0.03 | 78 | 1015.7 |
| 20260506233643 | 62 | 72 | 4.3 | 6.1 | 0.00 | 0.03 | 0.03 | 78 | 1015.5 |
| 20260506233139 | 62 | 70 | 4.3 | 6.1 | 0.00 | 0.03 | 0.03 | 77 | 1015.8 |
| 20260506232636 | 62 | 58 | 6.1 | 6.1 | 0.00 | 0.03 | 0.03 | 77 | 1015.6 |
| 20260506232131 | 62 | 40 | 2.6 | 6.1 | 0.00 | 0.03 | 0.03 | 77 | 1015.3 |
| 20260506231628 | 62 | 46 | 7.8 | 7.8 | 0.00 | 0.03 | 0.03 | 77 | 1015.5 |
| 20260506231127 | 62 | 49 | 3.5 | 7.0 | 0.00 | 0.03 | 0.03 | 77 | 1015.4 |
| 20260506230624 | 62 | 15 | 3.5 | 7.8 | 0.00 | 0.03 | 0.03 | 77 | 1015.4 |
| 20260506230120 | 63 | 43 | 5.2 | 8.7 | 0.00 | 0.03 | 0.03 | 77 | 1015.2 |
| 20260506225617 | 63 | 34 | 4.3 | 6.1 | 0.00 | 0.03 | 0.03 | 78 | 1015.3 |
| 20260506225113 | 63 | 22 | 2.6 | 7.8 | 0.00 | 0.03 | 0.03 | 78 | 1015.2 |
| 20260506224610 | 62 | 35 | 2.6 | 5.2 | 0.00 | 0.03 | 0.03 | 79 | 1015.3 |
| 20260506224107 | 62 | 32 | 6.1 | 10.4 | 0.00 | 0.03 | 0.03 | 78 | 1015.2 |
| 20260506223603 | 63 | 28 | 3.5 | 9.6 | 0.00 | 0.03 | 0.03 | 77 | 1015.2 |
| 20260506223059 | 63 | 32 | 3.5 | 11.3 | 0.00 | 0.03 | 0.03 | 76 | 1015.1 |
| 20260506222556 | 63 | 48 | 3.5 | 5.2 | 0.00 | 0.03 | 0.03 | 75 | 1015.0 |
| 20260506222052 | 63 | 11 | 3.5 | 4.3 | 0.00 | 0.03 | 0.03 | 75 | 1015.2 |
| 20260506221550 | 63 | 354 | 0.9 | 6.1 | 0.00 | 0.03 | 0.03 | 76 | 1015.3 |
| 20260506221048 | 63 | 4 | 2.6 | 4.3 | 0.00 | 0.03 | 0.03 | 75 | 1015.2 |
| 20260506220544 | 63 | 20 | 3.5 | 5.2 | 0.00 | 0.03 | 0.03 | 75 | 1015.4 |
| 20260506220039 | 63 | 34 | 3.5 | 6.1 | 0.00 | 0.03 | 0.03 | 76 | 1015.2 |
| 20260506215537 | 63 | 65 | 7.0 | 7.8 | 0.00 | 0.03 | 0.03 | 75 | 1015.3 |
| 20260506215032 | 63 | 54 | 6.1 | 6.1 | 0.00 | 0.03 | 0.03 | 75 | 1015.2 |
| 20260506214529 | 63 | 34 | 6.1 | 7.8 | 0.00 | 0.03 | 0.03 | 75 | 1015.4 |
| 20260506214026 | 63 | 15 | 2.6 | 5.2 | 0.00 | 0.03 | 0.03 | 75 | 1015.4 |
| 20260506213525 | 63 | 27 | 6.1 | 6.1 | 0.00 | 0.03 | 0.03 | 75 | 1015.4 |
| 20260506213021 | 63 | 7 | 3.5 | 6.1 | 0.00 | 0.03 | 0.03 | 75 | 1015.4 |
| 20260506212518 | 63 | 353 | 4.3 | 5.2 | 0.00 | 0.03 | 0.03 | 75 | 1015.6 |
| 20260506212013 | 63 | 341 | 1.7 | 6.1 | 0.00 | 0.03 | 0.03 | 75 | 1015.3 |
| 20260506211509 | 63 | 32 | 3.5 | 7.8 | 0.00 | 0.03 | 0.03 | 74 | 1015.3 |
| 20260506211007 | 63 | 351 | 4.3 | 6.1 | 0.00 | 0.03 | 0.03 | 74 | 1015.4 |
| 20260506210503 | 63 | 302 | 3.5 | 3.5 | 0.00 | 0.03 | 0.03 | 74 | 1015.5 |
| 20260506210000 | 63 | 49 | 2.6 | 5.2 | 0.00 | 0.03 | 0.03 | 74 | 1015.3 |
| 20260506205456 | 63 | 17 | 0.9 | 4.3 | 0.00 | 0.03 | 0.03 | 76 | 1015.3 |
| 20260506204952 | 62 | 30 | 5.2 | 7.0 | 0.00 | 0.03 | 0.03 | 76 | 1015.3 |
| 20260506204450 | 62 | 7 | 3.5 | 6.1 | 0.00 | 0.03 | 0.03 | 76 | 1015.7 |
| 20260506203947 | 62 | 55 | 8.7 | 10.4 | 0.00 | 0.03 | 0.03 | 75 | 1015.3 |
| 20260506203444 | 62 | 40 | 5.2 | 10.4 | 0.00 | 0.03 | 0.03 | 76 | 1015.3 |
| 20260506202941 | 61 | 34 | 7.0 | 11.3 | 0.00 | 0.03 | 0.03 | 76 | 1015.7 |